Tracking 19489 objects as of 22-Jan-2019
HD Live streaming from Space Station
objects crossing your sky now

GORIZONT 25

Track GORIZONT 25 now!
GORIZONT 25 is classified as:


NORAD ID: 21922
Int'l Code: 1992-017A
Perigee: 35,800.4 km
Apogee: 36,024.0 km
Inclination: 15.0 °
Period: 1,442.2 minutes
Semi major axis: 42283 km
RCS: 6.3246 m2 (large)
Launch date: April 2, 1992
Source: Commonwealth of Independent States (former USSR) (CIS)
Launch site: TYURATAM MISSILE AND SPACE COMPLEX (TTMTR)

Six C-band; 1 Ku-band.
aabbcc
Your satellite tracking list
Your tracking list is empty




NASA's NSSDC Master Catalog

Two Line Element Set (TLE):
1 21922U 92017A   19021.61412497  .00000086  00000-0  00000+0 0  9995
2 21922  15.0289   4.6820 0026442  33.1798 152.8849  0.99850850 97931
Source of the keplerian elements: AFSPC